{"data":{"norad_id":62686,"epoch":"2026-05-23T17:21:08.662752Z","epoch_age_seconds":199565,"freshness":"STALE","line1":"1 62686U 25009CF  26143.72301693  .00001945  00000+0  91055-4 0  9993","line2":"2 62686  97.3971 222.5005 0007511  70.0050 290.1994 15.20898233 74970","mean_motion":15.20898233,"eccentricity":0.0007511,"inclination_deg":97.3971,"raan_deg":222.5005,"arg_perigee_deg":70.005,"mean_anomaly_deg":290.1994,"bstar":9.1055e-5,"rev_number":7497,"period_min":94.680891117848,"perigee_km":497.96140449516,"apogee_km":508.29844366852,"semimajor_km":6881.2669240818,"source":"CELESTRAK","updated_at":"2026-05-25T13:38:03.169560Z"}}